PAKNPACD

Guest
Details From PAKN - KING SALMON
To PACD - Cold Bay
Flight Number -
Tags decoded
Created
Modified
Stats Distance 288 nm / 533 km
Max Altitude 0 ft / 0 m
Waypoints 2
Social Downloads 0
Likes 0
Share VATSIM

Download

Looking for another format? Having issues loading an existing format? Contact us
Advertisement - Login to hide

Notes

Requested: PAKN PACD

Route

PAKN PACD

ID Type Via Altitude Latitude Longitude Leg Dist Tot Dist Heading (true) Name
O PAKN APT - 0 ft / 0 m 58.67709˚ -156.64992˚ - 0 nm - KING SALMON
O PACD APT - 0 ft / 0 m 55.20381˚ -162.72304˚ 288 nm 288 nm 226° / 221° Cold Bay

Altitude Profile

Advertisement - Login to hide

Weather


0- 5 10 15 20 25 30 35+ Temperature / ° C

Clouds and Precipitation
Forecast for 2018-05-27 12:00 UTC. Updated 3 hours ago

Ground ~20,000 ft ~40,000 ft Winds

PAKN

Details ICAO PAKN (AKN)
Name KING SALMON
Region USA (Alaska)
Timezone America/Anchorage (UTC-8.0)
Stats Elevation 68 ft / 21 m (AMSL)
Location 58.677088° -156.649920°
Runways 2
Magnetic Variation 13.338° E

METAR

PAKN 271354Z 00000KT 10SM FEW050 OVC080 04/03 A2978

Decode

TAF

TAF TAF AMD PAKN 271344Z 2714/2812 VRB05KT P6SM FEW035 SCT060 BKN080 FM271800 30008KT P6SM SCT050 BKN080 FM272200 27012KT P6SM SCT080 BKN100 FM280700 22008KT P6SM SCT150 BKN250

Decode

Departure Runways

ID Width Length Bearing (true) Bearing (mag) Surface Threshold Offset Overrun Length
11 150 ft / 46 m 8,480 ft / 2,585 m 131.89° 118.55° Asphalt 0 ft / 0 m 200 ft / 61 m
18 100 ft / 30 m 4,011 ft / 1,223 m 196.29° 182.95° Asphalt 0 ft / 0 m 0 ft / 0 m
29 150 ft / 46 m 8,480 ft / 2,585 m 311.92° 298.58° Asphalt 0 ft / 0 m 1,000 ft / 305 m
36 100 ft / 30 m 4,011 ft / 1,223 m 16.29° 2.95° Asphalt 0 ft / 0 m 0 ft / 0 m

PACD

Details ICAO PACD (CDB)
Name Cold Bay
Region USA (Alaska)
Timezone America/Nome (UTC-8.0)
Stats Elevation 98 ft / 30 m (AMSL)
Location 55.203815° -162.723041°
Runways 2
Magnetic Variation 10.662° E

METAR

PACD 271405Z AUTO 30011KT 10SM FEW007 OVC016 04/04 A3011

Decode

TAF

PACD 271325Z 2713/2812 32015KT P6SM -SHRA BKN015 OVC025 TEMPO 2713/2716 3SM BR BKN005 FM271800 29012KT P6SM -SHRA BKN020 OVC030 FM280100 29008KT P6SM VCSH BKN025 OVC040 FM280700 VRB05KT P6SM BKN020 OVC030

Decode

Destination Runways

ID Width Length Bearing (true) Bearing (mag) Surface Threshold Offset Overrun Length
08 151 ft / 46 m 4,222 ft / 1,287 m 94.77° 84.11° Asphalt 0 ft / 0 m 0 ft / 0 m
14 151 ft / 46 m 10,407 ft / 3,172 m 158.39° 147.73° Asphalt 0 ft / 0 m 0 ft / 0 m
26 151 ft / 46 m 4,222 ft / 1,287 m 274.79° 264.13° Asphalt 0 ft / 0 m 0 ft / 0 m
32 151 ft / 46 m 10,407 ft / 3,172 m 338.41° 327.75° Asphalt 0 ft / 0 m 0 ft / 0 m

Approach Navaids

Runway Type Ident Frequency Range Bearing (true) Bearing (mag) Slope Elevation
14 Localiser ICDB 110.30 MHz 18 nm / 33 km 158.42° 147.76° - 98 ft / 30 m (AMSL)
14 Glidescope ICDB 110.30 MHz 10 nm / 19 km 158.40° 147.74° 2.80° 69 ft / 21 m (AMSL)

Popular Alternatives